| time (UTC) | temp F | wind direction | speed MPH | gust MPH | rain 1hr in | rain 24hr in | rain mn in | humidity % | barometer mb |
| 20260505050541 | 80 | 142 | 3.0 | 7.0 | 0.00 | 0.04 | 0.01 | 94 | 1013.5 |
| 20260505041553 | 80 | 87 | 4.0 | 9.0 | 0.00 | 0.04 | 0.01 | 93 | 1013.5 |
| 20260505041041 | 81 | 79 | 2.0 | 9.0 | 0.00 | 0.04 | 0.01 | 93 | 1013.5 |
| 20260505040541 | 81 | 50 | 4.0 | 9.0 | 0.00 | 0.04 | 0.01 | 93 | 1013.5 |
| 20260505040053 | 81 | 88 | 4.0 | 8.0 | 0.00 | 0.04 | 0.01 | 93 | 1013.5 |
| 20260505035540 | 81 | 76 | 3.0 | 9.0 | 0.00 | 0.04 | 0.01 | 93 | 1013.4 |
| 20260505035042 | 81 | 69 | 3.0 | 9.0 | 0.00 | 0.04 | 0.01 | 93 | 1013.3 |
| 20260505034552 | 81 | 51 | 4.0 | 9.0 | 0.00 | 0.04 | 0.01 | 92 | 1013.2 |
| 20260505034040 | 81 | 9 | 3.0 | 7.0 | 0.00 | 0.04 | 0.01 | 92 | 1013.1 |
| 20260505033539 | 81 | 22 | 2.0 | 6.0 | 0.00 | 0.04 | 0.01 | 92 | 1013.0 |
| 20260505033049 | 81 | 51 | 2.0 | 6.0 | 0.00 | 0.04 | 0.01 | 92 | 1013.0 |
| 20260505032540 | 81 | 49 | 3.0 | 6.0 | 0.00 | 0.04 | 0.01 | 92 | 1012.8 |
| 20260505032039 | 81 | 81 | 2.0 | 6.0 | 0.00 | 0.04 | 0.01 | 92 | 1012.7 |
| 20260505031551 | 81 | 74 | 3.0 | 6.0 | 0.00 | 0.04 | 0.01 | 92 | 1012.5 |
| 20260505031041 | 81 | 84 | 2.0 | 6.0 | 0.00 | 0.04 | 0.01 | 92 | 1012.5 |
| 20260505030545 | 81 | 36 | 3.0 | 6.0 | 0.00 | 0.04 | 0.01 | 92 | 1012.4 |
| 20260505030052 | 81 | 61 | 2.0 | 6.0 | 0.00 | 0.04 | 0.01 | 92 | 1012.3 |
| 20260505025541 | 81 | 0 | 1.0 | 6.0 | 0.00 | 0.04 | 0.01 | 92 | 1012.3 |
| 20260505025042 | 81 | 65 | 2.0 | 6.0 | 0.00 | 0.04 | 0.01 | 91 | 1012.3 |
| 20260505024552 | 81 | 44 | 1.0 | 5.0 | 0.00 | 0.04 | 0.01 | 91 | 1012.2 |
| 20260505024040 | 81 | 71 | 1.0 | 5.0 | 0.00 | 0.04 | 0.01 | 91 | 1012.3 |
| 20260505023540 | 81 | 46 | 1.0 | 5.0 | 0.00 | 0.04 | 0.01 | 91 | 1012.3 |
| 20260505023052 | 81 | 5 | 1.0 | 6.0 | 0.00 | 0.04 | 0.01 | 91 | 1012.3 |
| 20260505022540 | 81 | 43 | 1.0 | 6.0 | 0.00 | 0.04 | 0.01 | 91 | 1012.3 |
| 20260505022043 | 81 | 22 | 2.0 | 6.0 | 0.00 | 0.04 | 0.01 | 91 | 1012.2 |
| 20260505021553 | 81 | 28 | 1.0 | 7.0 | 0.00 | 0.04 | 0.01 | 91 | 1012.2 |
| 20260505021040 | 82 | 0 | 2.0 | 7.0 | 0.00 | 0.04 | 0.01 | 91 | 1012.1 |
| 20260505020540 | 82 | 0 | 1.0 | 7.0 | 0.00 | 0.04 | 0.01 | 90 | 1012.1 |
| 20260505020051 | 82 | 57 | 1.0 | 7.0 | 0.00 | 0.04 | 0.01 | 90 | 1012.0 |
| 20260505015540 | 82 | 32 | 2.0 | 6.0 | 0.00 | 0.91 | 0.01 | 90 | 1011.9 |
| 20260505015040 | 82 | 0 | 1.0 | 6.0 | 0.00 | 0.91 | 0.01 | 90 | 1011.8 |
| 20260505014551 | 82 | 313 | 2.0 | 6.0 | 0.00 | 0.91 | 0.01 | 90 | 1011.7 |
| 20260505014039 | 82 | 5 | 1.0 | 6.0 | 0.00 | 0.91 | 0.01 | 90 | 1011.8 |
| 20260505013538 | 82 | 336 | 1.0 | 8.0 | 0.00 | 0.91 | 0.01 | 90 | 1011.7 |
| 20260505013051 | 82 | 0 | 2.0 | 8.0 | 0.00 | 0.91 | 0.01 | 89 | 1011.7 |
| 20260505012540 | 82 | 45 | 1.0 | 8.0 | 0.00 | 0.91 | 0.01 | 89 | 1011.6 |
| 20260505012041 | 83 | 240 | 2.0 | 8.0 | 0.00 | 0.91 | 0.01 | 89 | 1011.6 |
| 20260505011549 | 83 | 0 | 1.0 | 8.0 | 0.00 | 0.91 | 0.01 | 89 | 1011.6 |
| 20260505011040 | 83 | 84 | 2.0 | 8.0 | 0.00 | 0.91 | 0.01 | 89 | 1011.5 |
| 20260505010540 | 83 | 333 | 1.0 | 8.0 | 0.00 | 0.91 | 0.01 | 89 | 1011.6 |
| 20260505010105 | 83 | 342 | 1.0 | 5.0 | 0.00 | 0.91 | 0.01 | 88 | 1011.6 |
| 20260505005543 | 83 | 318 | 0.0 | 8.0 | 0.00 | 0.91 | 0.01 | 88 | 1011.7 |
| 20260505005041 | 83 | 338 | 2.0 | 9.0 | 0.00 | 0.91 | 0.01 | 88 | 1011.6 |
| 20260505004547 | 83 | 275 | 1.0 | 10.0 | 0.00 | 0.91 | 0.01 | 88 | 1011.7 |
| 20260505004042 | 83 | 327 | 2.0 | 10.0 | 0.00 | 0.91 | 0.01 | 88 | 1011.6 |
| 20260505003539 | 84 | 332 | 1.0 | 13.0 | 0.00 | 0.91 | 0.01 | 87 | 1011.7 |
| 20260505003048 | 84 | 13 | 3.0 | 13.0 | 0.00 | 0.91 | 0.01 | 87 | 1011.6 |
| 20260505002540 | 84 | 342 | 4.0 | 13.0 | 0.00 | 0.91 | 0.01 | 87 | 1011.6 |
| 20260505002038 | 84 | 333 | 4.0 | 13.0 | 0.00 | 0.91 | 0.01 | 86 | 1011.6 |
| 20260505001546 | 84 | 294 | 4.0 | 13.0 | 0.00 | 0.91 | 0.01 | 86 | 1011.5 |
| 20260505001039 | 84 | 313 | 5.0 | 14.0 | 0.00 | 0.91 | 0.01 | 86 | 1011.5 |
| 20260505000540 | 84 | 333 | 7.0 | 14.0 | 0.00 | 0.91 | 0.01 | 85 | 1011.5 |
| 20260505000049 | 85 | 0 | 2.0 | 12.0 | 0.00 | 0.91 | 0.01 | 85 | 1011.6 |
| 20260504235541 | 85 | 313 | 6.0 | 12.0 | 0.00 | 0.91 | 0.01 | 85 | 1011.5 |
| 20260504235043 | 85 | 342 | 2.0 | 10.0 | 0.00 | 0.91 | 0.01 | 85 | 1011.4 |
| 20260504234549 | 85 | 304 | 4.0 | 12.0 | 0.00 | 0.91 | 0.01 | 85 | 1011.5 |
| 20260504234038 | 86 | 339 | 5.0 | 15.0 | 0.00 | 0.91 | 0.01 | 84 | 1011.4 |
| 20260504233540 | 86 | 13 | 3.0 | 15.0 | 0.00 | 0.91 | 0.01 | 84 | 1011.5 |
| 20260504233047 | 86 | 12 | 6.0 | 14.0 | 0.00 | 0.91 | 0.01 | 84 | 1011.5 |
| 20260504232541 | 86 | 304 | 6.0 | 12.0 | 0.00 | 0.91 | 0.01 | 84 | 1011.5 |
| 20260504232040 | 86 | 352 | 5.0 | 11.0 | 0.00 | 0.91 | 0.01 | 84 | 1011.5 |
| 20260504231548 | 86 | 352 | 5.0 | 11.0 | 0.00 | 0.91 | 0.01 | 84 | 1011.5 |
| 20260504231038 | 86 | 309 | 4.0 | 12.0 | 0.00 | 0.91 | 0.01 | 84 | 1011.3 |
| 20260504230542 | 87 | 298 | 4.0 | 12.0 | 0.00 | 0.91 | 0.01 | 84 | 1011.4 |
| 20260504230052 | 87 | 81 | 2.0 | 14.0 | 0.00 | 0.91 | 0.01 | 84 | 1011.5 |
| 20260504225540 | 87 | 5 | 6.0 | 15.0 | 0.00 | 0.91 | 0.01 | 84 | 1011.4 |
| 20260504225039 | 87 | 339 | 7.0 | 15.0 | 0.00 | 0.91 | 0.01 | 83 | 1011.5 |
| 20260504224552 | 88 | 310 | 6.0 | 14.0 | 0.00 | 0.91 | 0.01 | 83 | 1011.6 |
| 20260504224038 | 88 | 331 | 7.0 | 14.0 | 0.00 | 0.91 | 0.01 | 82 | 1011.6 |
| 20260504223544 | 89 | 337 | 5.0 | 13.0 | 0.00 | 0.91 | 0.01 | 82 | 1011.6 |
| 20260504223058 | 89 | 259 | 3.0 | 12.0 | 0.00 | 0.91 | 0.01 | 82 | 1011.4 |
| 20260504222543 | 89 | 319 | 3.0 | 11.0 | 0.00 | 0.91 | 0.01 | 81 | 1011.5 |
| 20260504222040 | 89 | 101 | 2.0 | 11.0 | 0.00 | 0.91 | 0.01 | 81 | 1011.5 |
| 20260504221559 | 90 | 321 | 1.0 | 10.0 | 0.00 | 0.91 | 0.01 | 81 | 1011.4 |
| 20260504221040 | 90 | 0 | 3.0 | 11.0 | 0.00 | 0.91 | 0.01 | 81 | 1011.5 |
| 20260504220540 | 90 | 42 | 3.0 | 11.0 | 0.00 | 0.91 | 0.01 | 80 | 1011.5 |
| 20260504220052 | 91 | 345 | 4.0 | 11.0 | 0.00 | 0.91 | 0.01 | 78 | 1011.5 |
| 20260504215539 | 91 | 352 | 5.0 | 10.0 | 0.00 | 0.91 | 0.01 | 78 | 1011.6 |
| 20260504215040 | 91 | 303 | 3.0 | 12.0 | 0.00 | 0.91 | 0.01 | 78 | 1011.6 |
| 20260504214600 | 90 | 284 | 4.0 | 12.0 | 0.00 | 0.91 | 0.01 | 79 | 1011.7 |
| 20260504214041 | 90 | 335 | 6.0 | 12.0 | 0.00 | 0.91 | 0.01 | 79 | 1011.8 |
| 20260504213540 | 90 | 313 | 5.0 | 12.0 | 0.00 | 0.91 | 0.01 | 79 | 1011.7 |
| 20260504213104 | 90 | 333 | 5.0 | 10.0 | 0.00 | 0.91 | 0.01 | 79 | 1011.8 |
| 20260504212540 | 90 | 5 | 4.0 | 10.0 | 0.00 | 0.91 | 0.01 | 79 | 1011.7 |
| 20260504212042 | 91 | 348 | 2.0 | 9.0 | 0.00 | 0.91 | 0.01 | 79 | 1011.7 |
| 20260504211550 | 91 | 5 | 3.0 | 8.0 | 0.00 | 0.91 | 0.01 | 78 | 1011.7 |
| 20260504211040 | 91 | 14 | 3.0 | 8.0 | 0.00 | 0.91 | 0.01 | 77 | 1011.7 |
| 20260504210540 | 91 | 5 | 2.0 | 7.0 | 0.00 | 0.91 | 0.01 | 75 | 1011.9 |
| 20260504210052 | 92 | 339 | 3.0 | 6.0 | 0.00 | 0.91 | 0.01 | 74 | 1011.9 |
| 20260504205544 | 91 | 69 | 0.0 | 5.0 | 0.00 | 0.91 | 0.01 | 75 | 1011.9 |
| 20260504205040 | 91 | 317 | 1.0 | 6.0 | 0.00 | 0.91 | 0.01 | 75 | 1012.0 |
| 20260504204559 | 91 | 107 | 0.0 | 6.0 | 0.00 | 0.91 | 0.01 | 75 | 1012.0 |
| 20260504204040 | 91 | 84 | 1.0 | 6.0 | 0.00 | 0.91 | 0.01 | 75 | 1012.2 |
| 20260504203540 | 92 | 112 | 2.0 | 6.0 | 0.00 | 0.91 | 0.01 | 73 | 1012.3 |
| 20260504203052 | 92 | 29 | 0.0 | 5.0 | 0.00 | 0.91 | 0.01 | 75 | 1012.4 |
| 20260504202540 | 92 | 58 | 2.0 | 6.0 | 0.00 | 0.91 | 0.01 | 73 | 1012.4 |
| 20260504202040 | 91 | 330 | 2.0 | 6.0 | 0.00 | 0.91 | 0.01 | 73 | 1012.5 |
| 20260504201553 | 90 | 0 | 1.0 | 6.0 | 0.00 | 0.91 | 0.01 | 75 | 1012.5 |
| 20260504201038 | 90 | 51 | 1.0 | 7.0 | 0.00 | 0.91 | 0.01 | 77 | 1012.4 |
| 20260504200540 | 90 | 190 | 2.0 | 7.0 | 0.00 | 0.91 | 0.01 | 77 | 1012.5 |
| 20260504200050 | 91 | 155 | 2.0 | 8.0 | 0.00 | 0.91 | 0.01 | 76 | 1012.6 |
| 20260504195539 | 90 | 332 | 2.0 | 8.0 | 0.00 | 0.91 | 0.01 | 78 | 1012.6 |
| 20260504195038 | 90 | 306 | 3.0 | 8.0 | 0.00 | 0.91 | 0.01 | 78 | 1012.8 |
| 20260504194551 | 89 | 0 | 2.0 | 5.0 | 0.00 | 0.91 | 0.01 | 78 | 1012.9 |
| 20260504194040 | 88 | 0 | 0.0 | 6.0 | 0.00 | 0.91 | 0.01 | 80 | 1013.0 |
| 20260504193542 | 89 | 0 | 2.0 | 6.0 | 0.00 | 0.91 | 0.01 | 79 | 1013.1 |
| 20260504193049 | 89 | 0 | 0.0 | 8.0 | 0.00 | 0.91 | 0.01 | 80 | 1013.1 |
| 20260504192540 | 88 | 230 | 2.0 | 8.0 | 0.00 | 0.91 | 0.01 | 80 | 1013.2 |
| 20260504192042 | 89 | 261 | 5.0 | 8.0 | 0.00 | 0.91 | 0.01 | 79 | 1013.5 |
| 20260504191547 | 89 | 306 | 1.0 | 5.0 | 0.00 | 0.91 | 0.01 | 79 | 1013.5 |
| 20260504191038 | 89 | 327 | 0.0 | 5.0 | 0.00 | 0.91 | 0.01 | 79 | 1013.6 |
| 20260504190537 | 89 | 89 | 3.0 | 7.0 | 0.00 | 0.91 | 0.01 | 78 | 1013.6 |
| 20260504190050 | 89 | 145 | 3.0 | 7.0 | 0.00 | 0.91 | 0.01 | 79 | 1013.6 |
| 20260504185540 | 88 | 150 | 3.0 | 7.0 | 0.00 | 0.91 | 0.01 | 80 | 1013.7 |
| 20260504185040 | 88 | 182 | 3.0 | 8.0 | 0.00 | 0.91 | 0.01 | 80 | 1013.8 |
| 20260504184547 | 89 | 179 | 4.0 | 8.0 | 0.00 | 0.91 | 0.01 | 78 | 1013.8 |
| 20260504184040 | 88 | 136 | 3.0 | 8.0 | 0.00 | 0.91 | 0.01 | 80 | 1013.7 |
| 20260504183539 | 89 | 170 | 2.0 | 7.0 | 0.00 | 0.91 | 0.01 | 81 | 1013.8 |
| 20260504183050 | 88 | 101 | 3.0 | 7.0 | 0.00 | 0.91 | 0.01 | 81 | 1013.8 |
| 20260504182540 | 88 | 0 | 3.0 | 7.0 | 0.00 | 0.91 | 0.01 | 80 | 1014.1 |
| 20260504182040 | 89 | 51 | 2.0 | 8.0 | 0.00 | 0.91 | 0.01 | 80 | 1014.2 |
| 20260504181550 | 88 | 78 | 1.0 | 8.0 | 0.00 | 0.91 | 0.01 | 80 | 1014.2 |
| 20260504181041 | 88 | 79 | 2.0 | 7.0 | 0.00 | 0.91 | 0.01 | 80 | 1014.3 |
| 20260504180541 | 87 | 135 | 0.0 | 6.0 | 0.00 | 0.91 | 0.01 | 82 | 1014.3 |
| 20260504180050 | 87 | 138 | 2.0 | 8.0 | 0.00 | 0.91 | 0.01 | 82 | 1014.4 |
| 20260504175538 | 87 | 155 | 3.0 | 8.0 | 0.00 | 0.91 | 0.01 | 82 | 1014.4 |
| 20260504175041 | 86 | 237 | 3.0 | 9.0 | 0.00 | 0.91 | 0.01 | 83 | 1014.5 |
| 20260504174550 | 87 | 115 | 4.0 | 9.0 | 0.00 | 0.91 | 0.01 | 83 | 1014.5 |
| 20260504174041 | 86 | 148 | 3.0 | 9.0 | 0.00 | 0.91 | 0.01 | 84 | 1014.7 |
| 20260504173540 | 87 | 169 | 3.0 | 9.0 | 0.00 | 0.91 | 0.01 | 83 | 1014.6 |
| 20260504173049 | 86 | 170 | 2.0 | 5.0 | 0.00 | 0.91 | 0.01 | 83 | 1014.7 |
| 20260504172539 | 87 | 0 | 1.0 | 8.0 | 0.00 | 0.91 | 0.01 | 83 | 1014.9 |
| 20260504172040 | 86 | 0 | 3.0 | 8.0 | 0.00 | 0.91 | 0.01 | 82 | 1015.1 |
| 20260504171555 | 86 | 144 | 2.0 | 7.0 | 0.00 | 0.91 | 0.01 | 83 | 1015.2 |
| 20260504171040 | 86 | 190 | 2.0 | 7.0 | 0.00 | 0.91 | 0.01 | 83 | 1015.2 |
| 20260504170544 | 85 | 0 | 2.0 | 6.0 | 0.00 | 0.91 | 0.01 | 83 | 1015.2 |